Weather History for Spirit of St Louis, MO

Change the Weather History Date:

Monday, May 20, 2013

  Actual Average Record
Temperature  
Mean Temperature 71 °F -  
Max Temperature 81 °F 74 °F 89 °F (2012)
Min Temperature 62 °F 52 °F 39 °F (2002)
Cooling Degree Days 6    
Growing Degree Days 21 (Base 50)    
Moisture  
Dew Point 64 °F    
Average Humidity 84    
Maximum Humidity 94    
Minimum Humidity 60    
Precipitation  
Precipitation 1.04 in - - ()
Sea Level Pressure  
Sea Level Pressure 29.80 in    
Wind  
Wind Speed 10 mph (South)    
Max Wind Speed 36 mph    
Max Gust Speed 54 mph    
Visibility 7 miles    
Events Rain , Thunderstorm    
Averages and records for this station are not official NWS values.
T = Trace of Precipitation, MM = Missing Value Source: NWS Daily Summary

Daily Weather History Graph

Daily Weather History Graph

Search for Another Location

Airport:

Trip Planner

Search our weather history database for the weather conditions in past years. The results will help you decide how hot, cold, wet, or windy it might be!

Date:

Astronomy

May. 20, 2013 Rise Set
Actual Time 5:46 AM CDT 8:12 PM CDT
Civil Twilight 5:16 AM CDT 8:42 PM CDT
Nautical Twilight 4:38 AM CDT 9:20 PM CDT
Astronomical Twilight 3:57 AM CDT 10:02 PM CDT
Moon 3:23 PM CDT 2:38 AM CDT
Length of Visible Light 15h 26m
Length of Day
14h 25m
Waxing Gibbous, 75% of the Moon is Illuminated
May 20
Waxing Gibbous
May 24
Full
May 31
Last Quarter
Jun 8
New
Jun 16
First Quarter

Hourly Weather History & Observations

Time (CDT) Temp. Heat Index Dew Point Humidity Pressure Visibility Wind Dir Wind Speed Gust Speed Precip Events Conditions
12:54 AM 79.0 °F - 66.9 °F 66% 29.71 in 10.0 mi South 10.4 mph 20.7 mph N/A   Clear
1:54 AM 79.0 °F - 66.9 °F 66% 29.72 in 10.0 mi South 12.7 mph 25.3 mph N/A   Clear
2:54 AM 78.8 °F - 66.2 °F 65% 29.76 in 10.0 mi SSW 11.5 mph 18.4 mph N/A   Clear
3:31 AM 68.0 °F - 60.8 °F 78% 29.86 in 5.0 mi WNW 35.7 mph 54.1 mph 0.03 in Rain , Thunderstorm Light Rain
3:38 AM 64.4 °F - 60.8 °F 88% 29.87 in 2.5 mi West 17.3 mph 44.9 mph 0.09 in Rain , Thunderstorm Heavy Rain
3:46 AM 62.6 °F - 60.8 °F 94% 29.88 in 7.0 mi WNW 6.9 mph 24.2 mph 0.09 in Rain , Thunderstorm Light Rain
3:54 AM 63.0 °F - 60.1 °F 90% 29.86 in 7.0 mi West 3.5 mph - 0.11 in Rain , Thunderstorm Rain
4:16 AM 62.6 °F - 60.8 °F 94% 29.88 in 5.0 mi Calm Calm - 0.02 in Rain Rain
4:54 AM 63.0 °F - 60.1 °F 90% 29.84 in 10.0 mi East 4.6 mph - 0.04 in Rain , Thunderstorm Light Rain
5:32 AM 62.6 °F - 60.8 °F 94% 29.84 in 6.0 mi SE 5.8 mph - 0.03 in Rain Light Rain
5:54 AM 63.0 °F - 60.1 °F 90% 29.81 in 5.0 mi SSE 4.6 mph - 0.09 in Rain Light Rain
6:29 AM 64.4 °F - 60.8 °F 88% 29.88 in 2.5 mi Variable 5.8 mph - 0.09 in Rain , Thunderstorm Thunderstorms and Rain
6:36 AM 62.6 °F - 60.8 °F 94% 29.86 in 1.2 mi SE 4.6 mph - 0.15 in Rain , Thunderstorm Thunderstorms and Rain
6:40 AM 62.6 °F - 60.8 °F 94% 29.87 in 3.0 mi SSE 5.8 mph - 0.15 in Rain , Thunderstorm Light Thunderstorms and Rain
6:54 AM 63.0 °F - 60.1 °F 90% 29.86 in 8.0 mi SSE 8.1 mph - 0.16 in Rain , Thunderstorm Light Rain
7:02 AM 62.6 °F - 60.8 °F 94% 29.87 in 10.0 mi SE 8.1 mph - 0.00 in Rain Light Rain
7:54 AM 64.9 °F - 61.0 °F 87% 29.86 in 10.0 mi SSE 6.9 mph - 0.00 in   Mostly Cloudy
8:54 AM 64.4 °F - 60.8 °F 88% 29.88 in 10.0 mi SSE 6.9 mph - N/A   Overcast
9:21 AM 66.2 °F - 62.6 °F 88% 29.88 in 10.0 mi South 3.5 mph - N/A Thunderstorm Overcast
9:36 AM 68.0 °F - 62.6 °F 83% 29.86 in 10.0 mi SE 4.6 mph - N/A   Mostly Cloudy
9:54 AM 69.1 °F - 63.0 °F 81% 29.82 in 10.0 mi SE 9.2 mph - N/A   Scattered Clouds
10:54 AM 73.0 °F - 64.0 °F 73% 29.80 in 10.0 mi SE 12.7 mph - N/A   Scattered Clouds
11:54 AM 77.0 °F - 62.1 °F 60% 29.82 in 10.0 mi South 9.2 mph 19.6 mph N/A   Scattered Clouds
12:54 PM 78.8 °F - 64.4 °F 61% 29.84 in 10.0 mi SE 10.4 mph - N/A   Mostly Cloudy
1:54 PM 80.1 °F 82.1 °F 66.0 °F 62% 29.81 in 10.0 mi SSW 10.4 mph - N/A   Mostly Cloudy
2:54 PM 80.1 °F 82.3 °F 66.9 °F 64% 29.79 in 10.0 mi SSW 6.9 mph 17.3 mph N/A   Mostly Cloudy
3:54 PM 80.1 °F 82.7 °F 68.0 °F 67% 29.78 in 10.0 mi South 8.1 mph - N/A   Overcast
4:54 PM 77.0 °F - 68.0 °F 74% 29.76 in 10.0 mi SSE 5.8 mph - N/A   Overcast
5:54 PM 77.0 °F - 69.1 °F 76% 29.73 in 10.0 mi SSE 4.6 mph - N/A   Overcast
6:54 PM 77.0 °F - 69.1 °F 76% 29.70 in 10.0 mi Variable 4.6 mph - N/A   Overcast
7:15 PM 77.0 °F - 68.0 °F 74% 29.70 in 10.0 mi SE 6.9 mph - N/A Thunderstorm Overcast
7:54 PM 72.0 °F - 66.9 °F 84% 29.71 in 4.0 mi NW 6.9 mph - 0.06 in Rain , Thunderstorm Thunderstorms and Rain
8:12 PM 71.6 °F - 68.0 °F 88% 29.69 in 2.5 mi West 10.4 mph 16.1 mph 0.09 in Rain , Thunderstorm Thunderstorms and Rain
8:20 PM 71.6 °F - 68.0 °F 88% 29.72 in 3.0 mi SW 12.7 mph 16.1 mph 0.11 in Rain , Thunderstorm Light Thunderstorms and Rain
8:42 PM 71.6 °F - 69.8 °F 94% 29.72 in 4.0 mi West 5.8 mph - 0.15 in Rain , Thunderstorm Light Thunderstorms and Rain
8:47 PM 71.6 °F - 69.8 °F 94% 29.71 in 2.0 mi WNW 5.8 mph - 0.27 in Rain Heavy Rain
8:50 PM 71.6 °F - 69.8 °F 94% 29.70 in 2.0 mi NW 3.5 mph - 0.32 in Rain , Thunderstorm Heavy Thunderstorms and Rain
8:54 PM 71.6 °F - 69.8 °F 94% 29.70 in 2.0 mi South 4.6 mph - N/A Rain , Thunderstorm Heavy Thunderstorms and Rain
9:46 PM 66.2 °F - 62.6 °F 88% 29.81 in 4.0 mi NW 18.4 mph 39.1 mph 0.04 in Rain , Thunderstorm Light Thunderstorms and Rain
9:48 PM 66.2 °F - 62.6 °F 88% 29.80 in 2.5 mi NW 19.6 mph 27.6 mph 0.14 in Rain , Thunderstorm Thunderstorms and Rain
10:05 PM 64.4 °F - 62.6 °F 94% 29.83 in 0.8 mi West 10.4 mph 41.4 mph 0.33 in Rain , Thunderstorm Heavy Thunderstorms and Rain
10:12 PM 64.4 °F - 62.6 °F 94% 29.79 in 2.0 mi West 9.2 mph - 0.36 in Rain , Thunderstorm Heavy Thunderstorms and Rain
10:20 PM 64.4 °F - 62.6 °F 94% 29.80 in 5.0 mi WSW 5.8 mph - 0.39 in Rain , Thunderstorm Light Thunderstorms and Rain
10:28 PM 64.4 °F - 62.6 °F 94% 29.83 in 10.0 mi South 6.9 mph - 0.39 in Rain , Thunderstorm Light Thunderstorms and Rain
10:54 PM 64.0 °F - 62.1 °F 93% 29.83 in 7.0 mi South 8.1 mph - 0.43 in Rain , Thunderstorm Light Thunderstorms and Rain
11:28 PM 64.4 °F - 60.8 °F 88% 29.83 in 7.0 mi SSE 8.1 mph - 0.10 in Rain Rain
11:41 PM 64.4 °F - 60.8 °F 88% 29.80 in 6.0 mi ESE 6.9 mph 16.1 mph 0.14 in Rain , Thunderstorm Rain
11:54 PM 64.0 °F - 61.0 °F 90% 29.71 in 10.0 mi ESE 9.2 mph - 0.15 in Rain , Thunderstorm Light Rain